Home > Weather > Medan > Past weeks

Flag for Indonesia Past Weather in Medan, North Sumatra, Indonesia — Yesterday and Last 2 Weeks

Now
90 °F

Scattered clouds.


Feels Like: 100 °F
Forecast: 76 / 93 °F
Wind: 8 mph from Northeast

Location: Medan / Polonia

Current Time: May 26, 2016 at 1:59:57 PM

Latest Report: May 26, 2016 at 1:00 PM


Visibility: N/A

Pressure: 29.80 "Hg

Humidity: 63%

Dew Point: 75 °F

Location of MedanLocation

Past Weather in Medan — Graph

°F

Medan Temperature Yesterday

Maximum temperature yesterday: 91 °F (at 12:30 PM)
Minimum temperature yesterday: 79 °F (at 5:00 AM)
Average temperature yesterday: 84 °F

High & Low Weather Summary for the Past Weeks

 TemperatureHumidityPressure
High93 °F (May 15, 1:30 PM)100% (May 11, 2:00 PM)29.89 "Hg (May 11, 2:00 PM)
Low73 °F (May 12, 4:30 AM)52% (May 12, 2:00 PM)29.68 "Hg (May 11, 5:30 PM)
Average83 °F86%29.78 "Hg
* Reported May 11 12:00 PM — May 26 12:30 PM, Medan, Weather by CustomWeather, © 2016

Note: Actual official high and low records may vary slightly from our data, if they occured in-between our weather recording intervals... More about our weather records

Advertising

Medan Weather History for the Previous 24 Hours

Scroll right to see more
 ConditionsComfort  
Time TempWeatherWind HumidityBarometerVisibility
12:30 PM
Thu, May 26
88 °FScattered clouds.3 mph66%29.80 "HgN/A
12:00 PM88 °FPartly sunny.5 mph75%29.80 "Hg5 mi
11:30 AM86 °FPartly sunny.6 mph75%29.80 "Hg5 mi
11:00 AM84 °FPartly sunny.6 mph84%29.83 "Hg5 mi
10:00 AM84 °FPartly sunny.3 mph79%29.83 "Hg4 mi
9:30 AM82 °FPartly sunny.5 mph89%29.83 "Hg4 mi
9:00 AM82 °FPartly sunny.6 mph89%29.80 "Hg4 mi
8:30 AM81 °FPartly sunny.6 mph94%29.80 "Hg4 mi
8:00 AM81 °FFog.2 mph94%29.80 "Hg3 mi
7:30 AM79 °FFog.3 mph100%29.80 "Hg3 mi
7:00 AM79 °FScattered clouds.No wind94%29.80 "Hg2 mi
6:30 AM79 °FFog.3 mph94%29.77 "Hg1 mi
6:00 AM79 °FFog.5 mph94%29.77 "Hg1 mi
5:30 AM79 °FPassing clouds.No wind94%29.74 "Hg3 mi
5:00 AM79 °FPassing clouds.3 mph94%29.77 "Hg4 mi
4:30 AM79 °FPassing clouds.5 mph94%29.77 "Hg3 mi
4:00 AM79 °FPassing clouds.7 mph94%29.77 "Hg3 mi
3:30 AM79 °FFog.7 mph94%29.77 "Hg2 mi
3:00 AM79 °FFog.6 mph94%29.80 "Hg1 mi
2:30 AM79 °FFog.7 mph94%29.83 "Hg2 mi
2:00 AM77 °FLight rain. Passing clouds.6 mph94%29.83 "Hg2 mi
1:30 AM77 °FLight rain. Passing clouds.6 mph94%29.83 "Hg2 mi
1:00 AM77 °FPassing clouds.2 mph94%29.83 "Hg4 mi
12:30 AM77 °FLight rain. Passing clouds.9 mph94%29.83 "Hg3 mi
12:00 AM79 °FThunderstorms. Passing clouds.10 mph94%29.89 "Hg3 mi
11:00 PM
Wed, May 25
79 °FHeavy rain. Partly cloudy.7 mph94%29.86 "Hg2 mi
10:30 PM81 °FRain. Partly cloudy.8 mph89%29.86 "Hg1 mi
10:00 PM82 °FPassing clouds.6 mph84%29.83 "Hg4 mi
9:30 PM81 °FPassing clouds.6 mph89%29.83 "Hg4 mi
9:00 PM81 °FPassing clouds.3 mph89%29.80 "Hg4 mi
8:30 PM81 °FPassing clouds.3 mph89%29.80 "Hg4 mi
8:00 PM81 °FPassing clouds.3 mph89%29.77 "Hg4 mi
7:30 PM82 °FPassing clouds.5 mph89%29.77 "Hg3 mi
7:00 PM84 °FPassing clouds.3 mph79%29.74 "Hg5 mi
6:30 PM86 °FThunderstorms. Scattered clouds.5 mph75%29.74 "Hg3 mi
6:00 PM86 °FThunderstorms. Scattered clouds.5 mph75%29.74 "HgN/A
5:30 PM88 °FPassing clouds.7 mph70%29.71 "HgN/A
5:00 PM90 °FPassing clouds.7 mph63%29.71 "HgN/A
4:30 PM90 °FScattered clouds.7 mph67%29.68 "HgN/A
4:00 PM90 °FScattered clouds.8 mph63%29.71 "HgN/A
3:30 PM91 °FScattered clouds.5 mph59%29.71 "HgN/A
3:00 PM91 °FScattered clouds.6 mph63%29.74 "HgN/A
2:30 PM90 °FScattered clouds.6 mph71%29.74 "HgN/A
2:00 PM90 °FScattered clouds.7 mph71%29.77 "HgN/A
1:30 PM91 °FScattered clouds.No wind59%29.77 "HgN/A
1:00 PM90 °FScattered clouds.5 mph63%29.77 "HgN/A
Weather by CustomWeather, © 2016

See weather overviewHow to use our weather pages